RYR8H LIME-LICR

Flight info

Callsign RYR8H
Flight time 1h 16m
Altitude 37000
Route LOGDI DCT OSMOX DCT LAT DCT DIRED DCT FOSQA
Aircraft B738/M-SDE2E3FGHIRWXY/LB1

Departure

Time 2026-05-06 15:36
Airport Il Caravaggio International Airport (LIME)

Arrival

Time 2026-05-06 16:52
Airport Reggio Calabria Airport (LICR)
Time Latitude Longitude Altitude Speed Heading
2026-05-06 15:05 45.66688 9.69801 782 ft 0 kts 195°
2026-05-06 15:26 45.66694 9.69803 782 ft 2 kts 195°
2026-05-06 15:26 45.66708 9.69809 782 ft 2 kts 195°
2026-05-06 15:27 45.66722 9.69814 782 ft 2 kts 195°
2026-05-06 15:27 45.66736 9.69823 782 ft 2 kts 215°
2026-05-06 15:27 45.66748 9.69837 782 ft 2 kts 229°
2026-05-06 15:27 45.66756 9.69854 782 ft 2 kts 244°
2026-05-06 15:28 45.66761 9.69874 782 ft 2 kts 259°
2026-05-06 15:28 45.66763 9.69896 782 ft 2 kts 274°
2026-05-06 15:28 45.66761 9.69911 782 ft 0 kts 284°
2026-05-06 15:28 45.66759 9.69919 782 ft 0 kts 287°
2026-05-06 15:32 45.66761 9.69913 782 ft 3 kts 287°
2026-05-06 15:33 45.66783 9.69797 782 ft 20 kts 281°
2026-05-06 15:33 45.66836 9.69515 782 ft 35 kts 285°
2026-05-06 15:33 45.66893 9.69196 782 ft 30 kts 282°
2026-05-06 15:33 45.66920 9.68931 782 ft 16 kts 290°
2026-05-06 15:34 45.66981 9.68885 782 ft 5 kts 17°
2026-05-06 15:34 45.66998 9.68892 782 ft 0 kts 16°
2026-05-06 15:34 45.67003 9.68893 782 ft 0 kts 16°
2026-05-06 15:35 45.67006 9.68895 782 ft 2 kts 16°
2026-05-06 15:35 45.67080 9.68950 782 ft 22 kts 72°
2026-05-06 15:35 45.67047 9.69292 782 ft 55 kts 105°
2026-05-06 15:35 45.66890 9.70159 782 ft 121 kts 107°
2026-05-06 15:36 45.66620 9.71559 936 ft 159 kts 105°
2026-05-06 15:36 45.66295 9.73058 1635 ft 161 kts 107°
2026-05-06 15:36 45.65911 9.74605 2167 ft 174 kts 120°
2026-05-06 15:36 45.65073 9.75937 2667 ft 190 kts 143°
2026-05-06 15:37 45.63871 9.76888 3198 ft 207 kts 157°
2026-05-06 15:37 45.62438 9.77424 3782 ft 223 kts 176°
2026-05-06 15:37 45.60876 9.77071 4492 ft 234 kts 201°
2026-05-06 15:37 45.59504 9.75929 5477 ft 232 kts 217°
2026-05-06 15:38 45.58388 9.74272 6321 ft 237 kts 231°
2026-05-06 15:38 45.57427 9.72320 6972 ft 249 kts 234°
2026-05-06 15:38 45.56426 9.70231 7585 ft 263 kts 234°
2026-05-06 15:38 45.55351 9.68067 8253 ft 273 kts 232°
2026-05-06 15:39 45.54087 9.66062 9121 ft 274 kts 218°
2026-05-06 15:39 45.52385 9.64932 9975 ft 276 kts 193°
2026-05-06 15:39 45.50453 9.64498 10607 ft 288 kts 188°
2026-05-06 15:39 45.48422 9.64166 11085 ft 303 kts 188°
2026-05-06 15:40 45.46261 9.63825 11586 ft 318 kts 188°
2026-05-06 15:40 45.44043 9.63462 12049 ft 333 kts 188°
2026-05-06 15:40 45.41668 9.63064 12520 ft 347 kts 188°
2026-05-06 15:40 45.39217 9.62720 12929 ft 364 kts 184°
2026-05-06 15:41 45.36640 9.62962 13355 ft 382 kts 170°
2026-05-06 15:41 45.34117 9.64374 13702 ft 402 kts 153°
2026-05-06 15:41 45.31719 9.66509 14379 ft 409 kts 149°
2026-05-06 15:41 45.29374 9.68759 15176 ft 412 kts 149°
2026-05-06 15:42 45.27003 9.71058 15947 ft 415 kts 149°
2026-05-06 15:42 45.24568 9.73395 16601 ft 421 kts 150°
2026-05-06 15:42 45.22135 9.75694 17301 ft 423 kts 151°
2026-05-06 15:42 45.19684 9.77980 17953 ft 428 kts 152°
2026-05-06 15:43 45.17176 9.80298 18568 ft 433 kts 152°
2026-05-06 15:43 45.14638 9.82631 19190 ft 437 kts 152°
2026-05-06 15:43 45.12083 9.84974 19880 ft 439 kts 152°
2026-05-06 15:43 45.09502 9.87335 20499 ft 443 kts 153°
2026-05-06 15:44 45.06906 9.89706 21101 ft 447 kts 153°
2026-05-06 15:44 45.04264 9.92117 21662 ft 451 kts 153°
2026-05-06 15:44 45.01650 9.94502 22367 ft 452 kts 153°
2026-05-06 15:44 44.99011 9.96888 22911 ft 455 kts 154°
2026-05-06 15:45 44.96292 9.99226 23518 ft 456 kts 155°
2026-05-06 15:45 44.93550 10.01496 24030 ft 460 kts 155°
2026-05-06 15:45 44.90757 10.03770 24563 ft 463 kts 156°
2026-05-06 15:45 44.87942 10.06050 25086 ft 467 kts 156°
2026-05-06 15:46 44.85130 10.08330 25816 ft 465 kts 156°
2026-05-06 15:46 44.82388 10.10564 26688 ft 459 kts 156°
2026-05-06 15:46 44.79583 10.12860 27309 ft 459 kts 156°
2026-05-06 15:46 44.76853 10.15103 27991 ft 457 kts 156°
2026-05-06 15:47 44.74105 10.17370 28738 ft 453 kts 156°
2026-05-06 15:47 44.71409 10.19601 29350 ft 452 kts 157°
2026-05-06 15:47 44.68668 10.21867 29833 ft 453 kts 157°
2026-05-06 15:47 44.65990 10.24083 30352 ft 452 kts 157°
2026-05-06 15:48 44.63273 10.26334 31015 ft 449 kts 157°
2026-05-06 15:48 44.60605 10.28543 31375 ft 451 kts 157°
2026-05-06 15:48 44.57897 10.30783 31980 ft 448 kts 156°
2026-05-06 15:48 44.55202 10.33014 32583 ft 445 kts 156°
2026-05-06 15:49 44.52556 10.35203 33089 ft 443 kts 157°
2026-05-06 15:49 44.49939 10.37363 33473 ft 444 kts 157°
2026-05-06 15:49 44.47280 10.39554 33808 ft 446 kts 157°
2026-05-06 15:49 44.44673 10.41697 34211 ft 445 kts 156°
2026-05-06 15:50 44.41946 10.43938 34629 ft 444 kts 156°
2026-05-06 15:50 44.39275 10.46133 34942 ft 445 kts 157°
2026-05-06 15:50 44.36594 10.48331 35122 ft 448 kts 156°
2026-05-06 15:50 44.33915 10.50525 35398 ft 448 kts 156°
2026-05-06 15:51 44.31227 10.52727 35701 ft 448 kts 156°
2026-05-06 15:51 44.28538 10.54929 36000 ft 448 kts 156°
2026-05-06 15:51 44.25855 10.57123 36214 ft 449 kts 156°
2026-05-06 15:51 44.23152 10.59331 36500 ft 448 kts 156°
2026-05-06 15:52 44.20463 10.61526 36795 ft 449 kts 156°
2026-05-06 15:52 44.17734 10.63749 36895 ft 451 kts 156°
2026-05-06 15:52 44.12281 10.68180 36909 ft 459 kts 156°
2026-05-06 15:53 44.06891 10.72557 36915 ft 461 kts 156°
2026-05-06 15:53 44.01396 10.77016 36915 ft 458 kts 156°
2026-05-06 15:54 43.95879 10.81481 36918 ft 460 kts 156°
2026-05-06 15:54 43.90352 10.85940 36921 ft 459 kts 156°
2026-05-06 15:55 43.84835 10.90380 36920 ft 458 kts 156°
2026-05-06 15:55 43.79374 10.94979 36914 ft 462 kts 153°
2026-05-06 15:56 43.73995 10.99889 36911 ft 464 kts 152°
2026-05-06 15:56 43.68628 11.04837 36915 ft 464 kts 153°
2026-05-06 15:57 43.63207 11.09790 36920 ft 465 kts 153°
2026-05-06 15:57 43.57807 11.14680 36921 ft 465 kts 153°
2026-05-06 15:58 43.52390 11.19559 36924 ft 463 kts 153°
2026-05-06 15:58 43.47020 11.24373 36927 ft 463 kts 153°
2026-05-06 15:59 43.41614 11.29206 36926 ft 464 kts 153°
2026-05-06 15:59 43.36174 11.34061 36920 ft 462 kts 153°
2026-05-06 16:00 43.30801 11.38846 36918 ft 462 kts 153°
2026-05-06 16:00 43.25429 11.43619 36918 ft 463 kts 153°
2026-05-06 16:01 43.20001 11.48431 36930 ft 463 kts 153°
2026-05-06 16:01 43.14595 11.53214 36932 ft 462 kts 153°
2026-05-06 16:02 43.09188 11.57988 36938 ft 462 kts 153°
2026-05-06 16:02 43.03803 11.62732 36938 ft 462 kts 153°
2026-05-06 16:03 42.98400 11.67483 36938 ft 461 kts 154°
2026-05-06 16:03 42.92999 11.72223 36937 ft 460 kts 154°
2026-05-06 16:04 42.87598 11.76952 36935 ft 459 kts 154°
2026-05-06 16:04 42.82207 11.81661 36939 ft 460 kts 154°
2026-05-06 16:05 42.76799 11.86371 36950 ft 461 kts 154°
2026-05-06 16:05 42.71395 11.91071 36950 ft 461 kts 154°
2026-05-06 16:06 42.65974 11.95777 36959 ft 461 kts 154°
2026-05-06 16:06 42.60579 12.00452 36963 ft 460 kts 154°
2026-05-06 16:07 42.55138 12.05150 36964 ft 461 kts 154°
2026-05-06 16:07 42.49714 12.09824 36958 ft 463 kts 154°
2026-05-06 16:08 42.44295 12.14490 36974 ft 463 kts 154°
2026-05-06 16:08 42.38830 12.19187 36959 ft 464 kts 154°
2026-05-06 16:09 42.33360 12.23879 36971 ft 463 kts 154°
2026-05-06 16:09 42.27924 12.28532 36970 ft 463 kts 154°
2026-05-06 16:10 42.22519 12.33149 36970 ft 462 kts 154°
2026-05-06 16:10 42.17065 12.37789 36976 ft 465 kts 154°
2026-05-06 16:11 42.11607 12.42431 36990 ft 461 kts 154°
2026-05-06 16:11 42.06163 12.47045 36987 ft 466 kts 154°
2026-05-06 16:12 42.00703 12.51666 36982 ft 465 kts 154°
2026-05-06 16:12 41.95201 12.56318 36979 ft 464 kts 154°
2026-05-06 16:13 41.89734 12.60928 36987 ft 467 kts 154°
2026-05-06 16:13 41.84243 12.65546 36994 ft 466 kts 154°
2026-05-06 16:14 41.78766 12.70145 37003 ft 466 kts 155°
2026-05-06 16:14 41.73322 12.74706 37013 ft 465 kts 154°
2026-05-06 16:15 41.67819 12.79309 37005 ft 465 kts 154°
2026-05-06 16:15 41.62314 12.83898 37001 ft 466 kts 154°
2026-05-06 16:16 41.56829 12.88467 36994 ft 465 kts 154°
2026-05-06 16:16 41.51308 12.93050 36989 ft 470 kts 155°
2026-05-06 16:17 41.45778 12.97640 36988 ft 467 kts 154°
2026-05-06 16:17 41.40266 13.02207 36981 ft 468 kts 154°
2026-05-06 16:18 41.34734 13.06780 36990 ft 470 kts 154°
2026-05-06 16:18 41.29201 13.11346 36989 ft 469 kts 154°
2026-05-06 16:19 41.23604 13.15946 36984 ft 472 kts 154°
2026-05-06 16:19 41.18031 13.20523 36986 ft 469 kts 154°
2026-05-06 16:20 41.12488 13.25067 36991 ft 471 kts 154°
2026-05-06 16:20 41.06929 13.29608 36985 ft 471 kts 154°
2026-05-06 16:21 41.01345 13.34162 36993 ft 471 kts 154°
2026-05-06 16:21 40.95778 13.38697 36990 ft 468 kts 154°
2026-05-06 16:22 40.90261 13.43175 36995 ft 470 kts 155°
2026-05-06 16:22 40.84690 13.47687 36989 ft 470 kts 154°
2026-05-06 16:23 40.79068 13.52239 36988 ft 470 kts 154°
2026-05-06 16:23 40.73486 13.56750 36986 ft 471 kts 154°
2026-05-06 16:24 40.67942 13.61221 36991 ft 469 kts 154°
2026-05-06 16:24 40.62355 13.65711 36982 ft 473 kts 155°
2026-05-06 16:25 40.56761 13.70207 36995 ft 471 kts 155°
2026-05-06 16:25 40.51131 13.74717 36988 ft 471 kts 155°
2026-05-06 16:26 40.45551 13.79180 36987 ft 472 kts 155°
2026-05-06 16:26 40.39926 13.83672 36992 ft 471 kts 155°
2026-05-06 16:27 40.34328 13.88135 36991 ft 471 kts 155°
2026-05-06 16:27 40.28693 13.92615 36994 ft 473 kts 154°
2026-05-06 16:28 40.23082 13.97072 36990 ft 473 kts 154°
2026-05-06 16:28 40.17437 14.01537 36987 ft 473 kts 154°
2026-05-06 16:29 40.11804 14.05987 36988 ft 476 kts 154°
2026-05-06 16:29 40.06157 14.10445 36984 ft 474 kts 154°
2026-05-06 16:30 40.01421 14.14175 36983 ft 475 kts 154°
2026-05-06 16:30 39.94789 14.19393 36986 ft 476 kts 154°
2026-05-06 16:31 39.89086 14.23867 36990 ft 475 kts 154°
2026-05-06 16:31 39.83421 14.28297 36983 ft 478 kts 154°
2026-05-06 16:32 39.77727 14.32743 36982 ft 476 kts 154°
2026-05-06 16:32 39.72045 14.37172 36980 ft 479 kts 154°
2026-05-06 16:33 39.66357 14.41593 36982 ft 477 kts 154°
2026-05-06 16:34 39.57803 14.48234 36977 ft 478 kts 153°
2026-05-06 16:34 39.52116 14.52641 36972 ft 475 kts 154°
2026-05-06 16:34 39.49333 14.54797 36756 ft 467 kts 153°
2026-05-06 16:35 39.46541 14.56959 36336 ft 461 kts 154°
2026-05-06 16:35 39.43800 14.59079 35810 ft 458 kts 154°
2026-05-06 16:35 39.41085 14.61172 35125 ft 458 kts 154°
2026-05-06 16:35 39.38338 14.63285 34357 ft 460 kts 154°
2026-05-06 16:36 39.35580 14.65403 33508 ft 463 kts 154°
2026-05-06 16:36 39.32829 14.67517 32671 ft 464 kts 154°
2026-05-06 16:36 39.30054 14.69646 31818 ft 466 kts 154°
2026-05-06 16:36 39.27267 14.71781 30931 ft 467 kts 154°
2026-05-06 16:37 39.24479 14.73913 30037 ft 469 kts 154°
2026-05-06 16:37 39.21662 14.76068 29109 ft 471 kts 154°
2026-05-06 16:37 39.18837 14.78229 28140 ft 474 kts 154°
2026-05-06 16:37 39.15999 14.80396 27115 ft 479 kts 154°
2026-05-06 16:38 39.13124 14.82588 26028 ft 487 kts 154°
2026-05-06 16:38 39.10209 14.84810 24877 ft 491 kts 154°
2026-05-06 16:38 39.07278 14.87044 23921 ft 489 kts 154°
2026-05-06 16:38 39.04396 14.89245 23245 ft 482 kts 153°
2026-05-06 16:39 39.01533 14.91431 22526 ft 476 kts 153°
2026-05-06 16:39 38.98700 14.93591 21770 ft 472 kts 153°
2026-05-06 16:39 38.95913 14.95713 20995 ft 468 kts 153°
2026-05-06 16:39 38.93100 14.97850 20192 ft 464 kts 153°
2026-05-06 16:40 38.90382 14.99912 19410 ft 457 kts 154°
2026-05-06 16:40 38.87661 15.01979 18612 ft 444 kts 153°
2026-05-06 16:40 38.85072 15.03945 17873 ft 433 kts 153°
2026-05-06 16:40 38.82500 15.05896 17092 ft 422 kts 153°
2026-05-06 16:41 38.80030 15.07764 16377 ft 417 kts 153°
2026-05-06 16:41 38.77531 15.09647 15657 ft 414 kts 153°
2026-05-06 16:41 38.75060 15.11507 14937 ft 411 kts 153°
2026-05-06 16:41 38.72598 15.13358 14209 ft 408 kts 153°
2026-05-06 16:42 38.70152 15.15197 13495 ft 405 kts 153°
2026-05-06 16:42 38.67770 15.16987 12808 ft 401 kts 152°
2026-05-06 16:42 38.65377 15.18784 12292 ft 393 kts 152°
2026-05-06 16:42 38.63057 15.20529 12001 ft 383 kts 152°
2026-05-06 16:43 38.60783 15.22236 11867 ft 384 kts 152°
2026-05-06 16:43 38.58446 15.23987 11686 ft 385 kts 152°
2026-05-06 16:43 38.56153 15.25704 11510 ft 383 kts 152°
2026-05-06 16:43 38.53850 15.27428 11333 ft 382 kts 152°
2026-05-06 16:44 38.51569 15.29167 11109 ft 382 kts 149°
2026-05-06 16:44 38.49408 15.31151 10781 ft 378 kts 144°
2026-05-06 16:44 38.47379 15.33241 10103 ft 376 kts 142°
2026-05-06 16:44 38.45410 15.35377 9674 ft 362 kts 141°
2026-05-06 16:45 38.43538 15.37439 9215 ft 347 kts 140°
2026-05-06 16:45 38.41753 15.39396 8828 ft 332 kts 141°
2026-05-06 16:45 38.40036 15.41259 8502 ft 317 kts 141°
2026-05-06 16:45 38.38395 15.43025 8210 ft 303 kts 141°
2026-05-06 16:46 38.36802 15.44728 7971 ft 288 kts 141°
2026-05-06 16:46 38.35311 15.46318 7747 ft 275 kts 141°
2026-05-06 16:46 38.33863 15.47857 7534 ft 265 kts 141°
2026-05-06 16:46 38.32454 15.49354 7222 ft 260 kts 141°
2026-05-06 16:47 38.31057 15.50835 6663 ft 263 kts 141°
2026-05-06 16:47 38.29666 15.52311 6196 ft 261 kts 141°
2026-05-06 16:47 38.28255 15.53763 5756 ft 258 kts 146°
2026-05-06 16:47 38.26629 15.54627 5237 ft 248 kts 167°
2026-05-06 16:48 38.24979 15.54993 4715 ft 235 kts 170°
2026-05-06 16:48 38.23419 15.55416 4245 ft 223 kts 165°
2026-05-06 16:48 38.21976 15.55978 3801 ft 213 kts 160°
2026-05-06 16:48 38.20641 15.56630 3378 ft 202 kts 157°
2026-05-06 16:49 38.19372 15.57332 2976 ft 192 kts 155°
2026-05-06 16:49 38.18198 15.58024 2640 ft 184 kts 154°
2026-05-06 16:49 38.17068 15.58717 2486 ft 168 kts 153°
2026-05-06 16:49 38.16086 15.59333 2495 ft 149 kts 153°
2026-05-06 16:50 38.15164 15.59918 2479 ft 151 kts 153°
2026-05-06 16:50 38.14189 15.60541 2039 ft 155 kts 153°
2026-05-06 16:50 38.13260 15.61136 1809 ft 149 kts 153°
2026-05-06 16:50 38.12359 15.61726 1514 ft 143 kts 152°
2026-05-06 16:51 38.11467 15.62344 1185 ft 147 kts 153°
2026-05-06 16:51 38.10588 15.62947 881 ft 142 kts 155°
2026-05-06 16:51 38.09694 15.63497 595 ft 141 kts 154°
2026-05-06 16:51 38.08827 15.64062 360 ft 139 kts 155°
2026-05-06 16:52 38.07953 15.64620 142 ft 139 kts 155°
2026-05-06 16:52 38.07199 15.65099 118 ft 89 kts 153°
2026-05-06 16:52 38.06812 15.65335 118 ft 33 kts 156°
2026-05-06 16:52 38.06829 15.65359 118 ft 15 kts 323°
2026-05-06 16:53 38.06950 15.65270 118 ft 28 kts 330°
2026-05-06 16:53 38.07156 15.65133 117 ft 32 kts 332°
2026-05-06 16:53 38.07311 15.65167 117 ft 18 kts 62°
2026-05-06 16:53 38.07361 15.65280 118 ft 1 kts 64°
2026-05-06 16:54 38.07363 15.65295 118 ft 2 kts 101°
2026-05-06 16:54 38.07362 15.65298 118 ft 0 kts 106°